Temperature
7 6 6 6 6 7 7 7 7 7 7 7 7 6 6 6 6 6 6 6 7 7 8 8 8 8 8 9 9 9 9 9 9 9 9 10 10 9 9 9 10 10 9 9
6 6 6 6 7 7 7 7 7 7 7 7 6 6 6 5 5 6 6 6 7 7 7 8 8 8 8 8 8 8 8 9 9 9 9 9 9 9 9 9 9 9 9 9
6 6 6 6 6 6 6 6 6 6 6 6 6 6 6 5 5 6 6 6 6 6 7 7 7 7 7 8 8 8 8 8 8 8 8 8 9 9 9 9 9 9 8 8
5 5 6 6 6 6 6 6 6 6 6 5 6 6 6 5 4 4 5 5 6 6 6 7 7 7 7 7 7 8 8 8 8 8 8 8 8 8 8 8 8 8 8 8
5 5 5 6 6 6 6 6 5 5 5 5 4 5 5 4 4 4 4 5 5 6 6 6 6 6 6 7 7 7 7 7 7 7 7 7 7 7 7 7 7 7 7 7
4 5 5 5 5 6 5 5 4 3 4 5 4 4 5 3 4 4 4 5 5 6 6 6 6 6 6 6 6 6 7 7 7 7 7 7 7 7 7 7 7 7 7 7
5 5 5 5 5 5 5 5 4 4 3 4 4 4 4 4 4 4 4 4 5 5 5 6 6 5 6 6 6 6 6 6 6 6 6 6 6 6 6 6 6 6 6 6
4 4 4 4 5 4 4 5 5 5 4 3 3 3 4 4 3 4 4 4 5 5 5 5 5 5 5 5 5 5 5 5 5 5 5 6 6 6 6 6 6 6 6 6
4 4 4 4 4 4 4 4 4 3 3 3 3 3 3 3 3 3 3 4 4 4 5 5 5 5 5 5 5 5 5 5 5 5 5 5 5 5 5 5 5 5 5 5
3 3 3 3 4 4 4 3 2 3 4 4 4 3 3 4 3 3 2 3 4 4 4 4 4 4 4 4 4 4 4 4 4 4 4 4 4 5 5 4 5 5 5 5
3 2 2 3 3 3 3 3 2 2 2 3 4 4 3 3 3 2 2 3 3 3 4 4 4 4 3 3 3 3 3 3 4 4 4 4 4 4 4 4 4 4 4 4
2 1 1 2 2 2 2 2 2 3 2 1 1 3 3 2 2 2 2 3 3 3 3 3 3 3 3 3 3 3 3 3 3 3 3 3 3 3 3 3 3 3 4 4
1 1 2 3 2 1 1 1 1 1 1 0 1 3 2 1 2 2 2 3 3 3 3 3 3 3 3 3 3 3 2 2 2 2 2 2 2 2 3 3 3 3 3 3
2 0 1 3 3 1 1 1 0 1 1 0 1 2 2 2 1 2 2 2 3 3 3 3 3 3 3 2 2 2 2 2 2 2 2 2 2 2 2 2 2 2 2 2
1 0 -0 0 1 1 1 1 0 0 1 1 1 1 2 1 1 2 2 2 2 2 2 2 2 2 2 2 2 2 2 2 1 1 1 1 1 1 1 1 1 1 2 2
-0 -0 -1 -0 0 0 1 1 0 0 1 0 1 1 1 1 1 1 1 1 2 2 2 2 2 2 2 2 2 2 1 1 1 1 1 1 1 1 1 1 1 1 1 1
-1 -1 -0 0 -0 0 1 0 -0 -0 -1 -0 1 2 1 0 0 1 1 1 2 2 2 2 2 2 2 2 2 1 1 1 1 0 0 0 0 0 0 0 0 0 0 0
-2 -1 -1 -1 -0 1 2 0 -0 -0 -0 -1 0 0 0 1 2 2 2 2 2 2 2 2 2 2 2 1 1 1 1 0 0 -0 -0 -0 -0 -0 -1 -1 -1 -1 -0 -0
-1 -1 -1 -2 -1 0 1 0 -1 -1 0 -0 -1 -0 0 1 0 1 3 3 2 2 2 2 1 1 1 1 0 0 0 -0 -0 -0 -0 -1 -1 -1 -1 -1 -1 -1 -1 -1
-2 -2 -1 -2 -1 0 2 0 -0 0 1 0 -1 -1 -0 -1 -0 1 3 3 2 2 1 1 1 1 1 0 0 -0 -0 -0 -1 -1 -1 -1 -1 -1 -1 -2 -2 -2 -2 -1
-2 -2 -2 -2 -1 -0 0 -1 -0 1 2 1 1 1 -0 -1 1 2 2 2 2 1 1 1 1 0 0 -0 -0 -0 -0 -1 -1 -1 -1 -1 -2 -2 -2 -2 -2 -2 -2 -2
-2 -2 -3 -2 -1 0 -0 -1 -0 1 2 2 2 2 1 1 2 2 2 2 1 1 1 0 0 -0 -0 -1 -1 -1 -1 -1 -1 -2 -2 -2 -2 -2 -2 -2 -3 -3 -3 -3
-3 -2 -2 -1 0 0 0 1 2 2 2 2 2 2 1 1 1 2 1 1 1 0 0 -0 -0 -1 -1 -1 -1 -1 -1 -2 -2 -2 -2 -2 -3 -3 -3 -3 -3 -3 -3 -3
-4 -4 -3 -3 -2 -1 1 1 2 2 2 2 2 1 1 1 1 1 1 1 0 -0 -0 -1 -1 -1 -1 -1 -2 -2 -2 -2 -2 -2 -3 -3 -3 -3 -3 -3 -3 -4 -4 -4
-3 -4 -4 -3 -2 -2 1 2 2 2 2 2 2 1 1 1 1 1 0 0 -0 -1 -1 -1 -1 -1 -1 -2 -2 -2 -2 -2 -3 -3 -3 -3 -3 -3 -3 -4 -4 -4 -4 -4
-4 -4 -3 -1 -0 -1 1 3 2 2 2 2 1 1 1 1 0 0 -0 -0 -1 -1 -1 -2 -2 -2 -2 -2 -2 -2 -3 -3 -3 -3 -3 -3 -4 -4 -4 -4 -4 -4 -4 -4
Wind_Speed
2 3 3 5 6 4 3 3 4 4 2 1 4 7 7 5 3 4 3 3 3 3 3 2 1 2 2 3 3 2 2 2 2 2 1 2 1 1 1 2 3 3 3 4
3 2 4 3 3 2 2 2 3 3 1 1 4 8 7 5 4 5 5 4 4 3 2 2 2 2 2 2 2 2 1 2 1 1 1 1 1 1 1 2 3 4 3 3
4 2 1 3 3 3 3 5 4 3 3 2 3 6 3 2 1 1 2 3 3 3 3 2 1 1 1 2 1 1 1 1 1 2 2 2 2 2 2 1 1 2 3 3
1 2 1 2 2 4 4 4 3 2 0 3 1 4 6 3 2 2 3 2 3 3 3 2 1 1 1 2 1 1 1 1 1 2 2 2 2 1 1 0 1 2 2 3
2 1 2 3 3 4 4 2 2 1 2 2 1 3 7 2 3 5 4 3 3 3 3 3 2 2 2 1 0 1 2 2 2 2 2 3 2 1 1 1 2 1 2 2
2 1 1 2 0 3 3 4 4 3 2 3 4 5 7 4 5 4 4 4 3 2 1 2 1 1 1 1 1 2 2 3 3 2 2 2 2 2 2 2 1 1 0 1
2 1 1 1 2 2 3 4 2 3 2 6 2 4 8 5 4 4 4 4 3 2 1 1 1 0 0 1 1 2 2 2 2 2 2 1 0 1 1 1 1 0 1 0
2 3 2 1 3 4 3 5 6 5 5 4 2 6 6 3 2 2 2 2 1 2 1 1 1 1 0 0 1 1 1 1 2 2 1 1 1 1 1 0 1 1 0 1
5 4 1 0 1 4 4 3 3 4 1 2 5 6 7 1 1 1 0 0 1 2 2 1 1 1 1 0 0 1 1 1 1 1 2 2 2 1 1 1 0 0 0 1
4 2 2 1 2 2 3 5 4 4 3 4 6 5 5 4 4 3 2 1 2 2 3 2 2 1 1 1 0 1 1 0 1 1 1 1 1 1 1 1 1 1 1 0
2 3 2 1 3 4 3 3 3 3 4 5 4 6 4 6 5 4 4 2 2 2 2 2 2 2 1 1 1 1 1 1 1 1 1 1 1 1 1 1 1 1 1 1
2 3 2 4 2 1 3 5 6 4 4 4 3 7 3 3 4 4 3 2 2 2 2 2 2 1 1 1 0 0 0 0 0 1 1 1 1 2 1 1 2 2 1 1
4 4 1 3 2 1 2 3 4 4 3 5 5 7 2 1 2 3 3 3 2 2 2 1 1 1 1 1 1 1 1 1 0 0 0 1 1 2 2 2 2 2 2 2
4 3 5 7 5 4 4 4 5 5 4 6 9 9 7 5 6 6 5 4 3 2 2 2 2 2 2 2 1 1 1 1 0 0 0 1 1 2 2 3 3 2 2 2
3 3 4 5 4 3 5 7 7 9 9 9 9 11 12 9 8 7 6 5 4 4 3 3 3 3 3 2 2 2 2 1 0 0 1 2 2 2 2 2 3 3 3 3
2 3 2 4 4 4 7 9 10 11 10 11 11 14 11 8 5 6 7 6 6 6 6 5 4 4 4 3 3 2 2 2 1 1 2 2 2 2 2 3 3 3 3 3
3 4 3 4 3 3 8 10 12 8 9 9 13 14 7 7 8 8 7 7 7 7 6 6 5 5 5 4 4 3 3 2 2 2 2 2 2 3 3 3 3 3 4 3
5 4 2 1 1 7 8 3 7 9 10 11 10 9 8 10 8 7 7 7 7 7 6 6 5 5 4 3 3 2 2 2 2 3 3 3 3 3 3 3 4 4 4 4
6 5 3 3 3 8 7 4 6 7 8 10 13 12 8 4 3 6 7 7 8 7 6 5 5 4 3 3 3 2 2 2 3 3 4 3 3 4 4 4 4 4 4 4
2 4 4 4 4 7 7 3 4 3 6 6 9 10 6 3 3 7 4 5 5 4 4 4 4 3 3 3 2 3 3 3 4 4 4 4 3 4 4 4 4 4 4 5
3 3 6 6 6 9 6 3 5 4 7 3 6 7 7 8 7 5 3 3 4 4 4 3 3 3 4 3 3 3 4 5 5 4 4 4 4 4 5 4 4 4 4 5
7 6 6 6 6 9 5 7 8 8 3 3 4 5 6 7 5 4 4 4 4 3 3 3 3 4 3 3 4 4 5 5 3 3 3 4 4 4 3 3 4 4 4 5
8 8 6 9 9 4 6 8 6 3 4 4 4 4 4 5 5 5 4 4 4 4 4 3 3 3 3 3 4 5 5 3 3 3 4 4 4 4 4 4 4 4 4 4
5 4 4 6 9 7 8 7 5 5 5 5 5 4 5 6 6 5 5 4 4 4 4 3 3 4 4 4 4 5 4 3 3 4 4 4 4 4 3 3 4 4 4 4
6 6 5 7 8 7 7 9 8 6 6 5 5 5 6 6 6 5 5 5 4 4 3 3 4 5 5 4 4 4 4 3 3 4 4 4 4 4 4 4 4 5 5 5
7 9 9 10 8 7 7 6 6 7 8 7 6 5 5 6 6 5 5 4 4 4 3 3 4 5 5 4 4 4 4 4 4 4 4 4 3 3 3 4 5 7 7 8
Wind_Direction
43 90 192 212 204 198 171 185 234 255 295 282 248 261 272 275 255 248 243 238 247 263 292 328 0 8 20 27 37 42 51 52 84 87 99 99 96 80 82 86 90 98 113 123
55 238 234 192 164 166 182 216 251 289 329 257 278 274 268 251 238 233 227 227 232 255 315 343 357 15 12 12 23 38 45 53 51 82 120 116 128 119 77 66 81 89 93 116
178 241 209 150 148 169 223 210 220 245 332 3 321 300 272 270 242 257 247 234 236 231 247 284 326 338 354 344 338 13 20 57 56 60 81 86 82 69 49 25 63 67 94 101
221 278 150 150 194 178 234 217 202 216 49 293 26 288 281 275 301 286 272 279 280 265 251 253 257 290 280 269 293 31 37 52 57 71 85 96 113 126 181 110 52 50 74 83
240 258 152 188 214 180 199 153 153 192 177 293 229 227 283 314 274 265 265 277 296 285 247 244 241 235 236 239 73 57 55 50 48 67 83 95 93 121 95 68 70 44 49 62
237 242 191 198 172 169 148 87 68 57 87 265 226 198 275 239 235 255 258 271 289 301 279 250 250 206 159 96 77 68 69 52 46 58 64 82 101 98 99 82 78 27 349 60
321 291 298 121 100 76 118 109 42 351 333 250 211 208 253 251 239 229 239 257 281 285 297 314 314 276 62 83 90 84 83 57 43 54 56 51 68 124 128 144 165 158 338 271
193 265 238 192 172 171 181 155 165 200 230 277 268 235 255 272 285 254 224 231 267 307 325 329 316 258 222 136 102 108 103 72 53 52 27 23 27 70 58 73 167 188 242 273
186 234 324 213 175 143 147 176 157 136 143 275 266 279 302 274 321 323 238 108 317 310 316 306 328 320 283 258 186 179 165 92 63 48 25 20 22 42 41 17 23 249 296 309
165 212 282 299 88 33 144 145 121 144 180 249 280 269 253 253 245 256 273 282 303 326 328 330 326 328 335 302 338 39 87 81 41 44 32 22 8 6 13 41 5 337 318 334
147 166 302 18 187 184 141 144 148 150 174 185 255 266 230 219 218 220 240 256 282 304 307 306 314 327 350 13 54 66 50 51 40 27 18 16 358 7 20 10 330 308 288 289
163 142 231 251 258 189 186 184 165 177 219 198 210 265 280 214 211 206 233 264 290 294 298 299 305 325 350 343 333 135 137 114 330 348 9 1 356 4 357 335 325 329 292 282
148 135 90 333 328 336 224 204 186 155 150 184 205 261 308 328 258 230 234 259 287 308 315 309 298 290 287 288 285 269 244 239 281 299 341 357 355 351 335 322 316 314 299 288
142 156 190 211 224 184 214 216 187 170 196 219 228 252 277 279 275 272 266 266 270 263 259 254 254 262 272 272 271 273 278 271 248 165 320 318 313 306 309 315 310 297 294 284
142 198 221 247 255 223 230 233 214 214 216 220 239 242 257 257 251 253 254 263 267 265 260 250 247 250 258 267 270 262 264 265 252 234 294 288 295 299 306 314 308 302 303 292
154 190 218 266 250 246 261 246 230 233 233 237 255 263 256 254 249 249 247 243 251 257 253 252 248 245 248 251 257 260 261 258 244 245 264 277 290 297 297 299 303 303 301 294
166 164 188 257 277 295 266 233 215 219 216 206 232 246 251 250 243 234 227 226 237 248 245 240 239 238 242 241 238 240 242 242 237 249 265 273 277 283 287 294 302 297 294 288
176 171 179 226 78 243 250 212 198 217 236 223 235 248 238 240 247 241 222 218 237 243 239 236 235 239 240 233 231 231 225 223 236 249 257 261 263 271 280 284 288 291 292 287
201 180 169 172 233 273 283 234 184 201 257 225 230 246 250 254 288 269 228 216 227 232 232 228 227 229 226 223 218 211 225 228 237 247 252 253 253 262 267 272 278 284 287 285
174 173 173 171 202 244 252 221 181 143 277 237 214 231 227 172 241 261 235 214 227 226 223 220 221 221 223 228 202 208 236 245 251 253 255 253 252 256 258 262 270 275 277 281
159 179 195 198 226 259 249 188 140 179 248 248 205 213 198 207 228 251 229 219 218 223 231 223 218 223 228 217 200 224 244 253 257 260 262 261 257 258 257 263 269 273 280 286
180 178 192 179 216 252 203 153 188 221 252 220 219 214 214 233 254 257 239 231 226 230 236 224 224 241 238 211 203 230 247 253 254 253 259 262 263 267 268 260 271 274 275 283
203 197 193 200 219 247 190 204 222 217 234 240 229 232 219 236 250 250 243 238 242 241 240 232 223 244 253 230 210 231 249 248 244 248 257 262 270 270 266 260 267 275 271 271
237 201 201 248 259 253 243 245 246 230 236 247 240 232 218 233 240 242 245 249 251 251 244 231 223 240 254 245 233 230 242 239 230 242 254 258 258 265 264 264 260 259 263 266
214 180 209 251 267 282 261 236 237 243 247 250 247 233 227 224 236 234 241 246 247 253 247 226 226 238 248 251 251 245 234 220 229 243 251 258 256 258 265 263 254 256 250 253
195 189 197 232 226 212 247 243 224 230 240 238 235 245 241 223 227 230 238 242 243 246 242 239 239 243 249 248 253 252 237 219 223 244 250 252 256 258 260 268 277 269 267 277
Height
1485 1489 1492 1492 1492 1492 1494 1496 1497 1494 1493 1494 1493 1492 1489 1487 1487 1487 1487 1487 1486 1486 1488 1488 1488 1488 1488 1488 1488 1489 1489 1490 1490 1491 1492 1493 1495 1496 1497 1498 1499 1501 1503 1504
1489 1491 1489 1489 1490 1492 1494 1496 1497 1495 1493 1494 1494 1491 1487 1485 1485 1484 1484 1485 1485 1485 1486 1486 1486 1486 1486 1486 1487 1487 1488 1488 1489 1490 1491 1492 1493 1494 1495 1496 1497 1499 1500 1502
1488 1490 1487 1488 1491 1493 1494 1496 1496 1496 1495 1494 1494 1489 1485 1483 1483 1482 1482 1483 1483 1483 1484 1484 1484 1484 1484 1485 1485 1486 1486 1487 1488 1489 1490 1491 1491 1492 1494 1494 1494 1496 1498 1499
1490 1488 1488 1489 1490 1491 1493 1492 1494 1495 1498 1500 1498 1497 1486 1484 1483 1482 1481 1481 1481 1481 1481 1482 1482 1483 1484 1484 1485 1485 1485 1486 1486 1487 1488 1488 1489 1490 1491 1492 1492 1494 1495 1497
1489 1488 1488 1488 1489 1489 1491 1491 1494 1495 1498 1501 1499 1501 1489 1485 1484 1481 1480 1479 1479 1479 1479 1480 1481 1482 1483 1483 1483 1484 1484 1484 1485 1485 1485 1486 1487 1488 1489 1490 1491 1492 1493 1494
1488 1487 1487 1487 1487 1488 1490 1493 1496 1500 1501 1502 1497 1500 1490 1487 1480 1479 1478 1477 1478 1478 1478 1479 1479 1480 1481 1481 1481 1482 1482 1483 1483 1484 1484 1484 1485 1486 1487 1488 1489 1490 1491 1492
1489 1487 1486 1486 1488 1489 1490 1495 1502 1503 1509 1503 1497 1497 1488 1478 1477 1476 1476 1476 1476 1477 1477 1477 1477 1477 1478 1478 1479 1480 1480 1481 1482 1483 1483 1483 1484 1485 1485 1486 1487 1488 1488 1489
1490 1490 1487 1486 1486 1489 1490 1491 1499 1502 1505 1503 1498 1495 1483 1477 1475 1474 1475 1475 1475 1476 1476 1476 1476 1476 1476 1477 1477 1478 1479 1479 1480 1481 1481 1482 1482 1483 1483 1484 1485 1485 1485 1486
1489 1489 1486 1485 1485 1486 1490 1493 1493 1501 1506 1506 1497 1492 1482 1475 1475 1474 1474 1474 1474 1475 1475 1475 1475 1476 1476 1476 1476 1477 1477 1478 1478 1479 1479 1479 1480 1480 1481 1482 1482 1482 1482 1483
1485 1490 1487 1486 1486 1487 1488 1491 1497 1500 1501 1499 1495 1492 1484 1476 1474 1474 1474 1473 1474 1474 1474 1474 1474 1475 1475 1475 1475 1475 1475 1476 1476 1476 1477 1477 1478 1478 1479 1480 1480 1480 1480 1481
1485 1490 1490 1488 1488 1488 1490 1492 1493 1499 1500 1500 1496 1485 1474 1473 1472 1473 1473 1473 1473 1473 1473 1473 1473 1474 1474 1474 1474 1474 1474 1475 1475 1475 1475 1475 1475 1476 1476 1477 1477 1477 1478 1478
1485 1489 1492 1490 1487 1487 1487 1488 1492 1494 1498 1502 1501 1486 1470 1470 1470 1471 1471 1472 1472 1472 1472 1472 1472 1473 1473 1473 1473 1473 1473 1473 1473 1473 1473 1473 1473 1473 1473 1474 1474 1474 1475 1475
1484 1490 1492 1488 1491 1491 1489 1489 1489 1492 1497 1502 1498 1482 1470 1470 1469 1469 1469 1470 1470 1471 1471 1471 1471 1471 1471 1471 1471 1471 1471 1471 1471 1471 1471 1471 1471 1471 1471 1471 1471 1471 1471 1471
1482 1488 1489 1485 1482 1486 1488 1488 1488 1490 1493 1495 1489 1478 1471 1469 1469 1468 1467 1468 1468 1469 1469 1469 1469 1469 1469 1469 1469 1469 1469 1469 1469 1469 1468 1468 1468 1468 1468 1467 1467 1467 1467 1467
1481 1486 1486 1485 1484 1484 1483 1483 1485 1485 1483 1483 1477 1476 1467 1466 1466 1465 1465 1465 1465 1466 1466 1466 1466 1466 1466 1466 1466 1466 1466 1466 1466 1466 1465 1465 1465 1465 1464 1464 1464 1463 1463 1463
1481 1484 1486 1485 1482 1482 1480 1477 1479 1478 1478 1477 1474 1469 1462 1461 1462 1462 1462 1462 1462 1462 1463 1463 1463 1463 1463 1463 1463 1463 1463 1463 1463 1463 1463 1463 1462 1462 1461 1461 1460 1459 1459 1459
1481 1483 1484 1483 1483 1480 1476 1469 1471 1471 1469 1469 1467 1460 1458 1458 1457 1457 1457 1458 1458 1458 1459 1459 1459 1460 1460 1460 1461 1461 1461 1460 1460 1460 1460 1459 1459 1458 1458 1457 1457 1456 1455 1455
1479 1481 1484 1485 1483 1480 1461 1460 1461 1462 1460 1460 1457 1454 1453 1452 1452 1452 1453 1454 1454 1454 1454 1455 1456 1456 1457 1457 1457 1457 1457 1457 1457 1457 1456 1456 1455 1454 1454 1453 1452 1452 1451 1450
1473 1477 1482 1486 1484 1471 1460 1457 1459 1460 1455 1451 1451 1449 1450 1450 1450 1449 1449 1450 1450 1450 1451 1452 1452 1453 1453 1453 1454 1454 1454 1454 1453 1453 1452 1452 1451 1450 1450 1449 1448 1447 1446 1446
1472 1473 1479 1483 1480 1471 1455 1452 1452 1455 1453 1444 1444 1445 1446 1448 1451 1446 1445 1446 1447 1447 1448 1448 1449 1449 1449 1450 1450 1450 1450 1449 1449 1449 1448 1448 1447 1446 1445 1445 1444 1443 1442 1441
1473 1474 1476 1478 1477 1462 1451 1450 1452 1457 1448 1440 1439 1440 1442 1443 1443 1441 1441 1442 1443 1444 1445 1445 1445 1445 1445 1446 1446 1445 1445 1445 1445 1444 1444 1443 1442 1442 1441 1440 1440 1439 1438 1437
1466 1470 1472 1473 1472 1458 1445 1447 1448 1442 1438 1437 1437 1437 1438 1438 1438 1438 1438 1439 1439 1440 1441 1441 1441 1441 1441 1441 1441 1441 1441 1441 1440 1440 1439 1439 1438 1437 1437 1436 1435 1435 1434 1433
1459 1456 1456 1455 1448 1440 1439 1437 1436 1437 1436 1435 1435 1435 1435 1435 1435 1435 1435 1435 1436 1436 1436 1437 1436 1436 1437 1437 1437 1437 1437 1437 1436 1436 1435 1435 1434 1434 1433 1432 1431 1430 1429 1428
1451 1449 1451 1449 1440 1436 1435 1434 1434 1434 1433 1433 1433 1433 1433 1432 1432 1432 1432 1432 1432 1432 1432 1432 1432 1432 1432 1433 1433 1433 1432 1432 1432 1431 1431 1430 1430 1429 1429 1428 1427 1426 1425 1424
1442 1445 1446 1443 1435 1432 1429 1429 1429 1430 1430 1430 1429 1429 1429 1429 1428 1428 1428 1428 1428 1428 1428 1428 1428 1428 1428 1428 1428 1428 1428 1428 1427 1427 1427 1426 1425 1425 1424 1423 1423 1422 1421 1420
1433 1436 1437 1431 1426 1427 1425 1424 1425 1425 1425 1425 1425 1425 1425 1425 1425 1425 1424 1424 1424 1424 1424 1424 1424 1424 1424 1424 1424 1424 1424 1424 1423 1423 1422 1422 1421 1420 1420 1419 1418 1417 1417 1416